N0MR Weather Reports


time (UTC)temp
F
wind
direction
speed
knots
gust
knots
rain 1hr
in
rain 24hr
in
rain mn
in
humidity
%
barometer
mb
20260905033930 60 290 0.0 0.9 0.00 0.67 0.67 97 1016.9
20260905032934 60 290 0.0 0.9 0.00 0.67 0.67 97 1016.9
20260905031930 60 290 0.0 1.7 0.00 0.72 0.67 97 1016.9
20260905024931 60 240 0.0 0.0 0.00 0.74 0.67 97 1016.9
20260905023931 60 240 0.0 0.0 0.00 0.74 0.67 97 1016.9
20260905022931 60 239 0.0 0.9 0.00 0.92 0.67 97 1016.7
20260905021932 60 239 0.0 0.9 0.00 0.92 0.67 97 1016.7
20260905020931 60 239 0.0 0.9 0.00 0.92 0.53 97 1016.7
20260905015931 60 239 0.0 0.9 0.00 0.92 0.53 97 1016.7
20260905000932 60 267 0.0 0.9 0.00 0.92 0.53 96 1015.8
20260904235943 60 267 0.0 0.9 0.00 0.92 0.53 96 1015.8
20260904233329 61 330 0.0 0.0 0.00 0.92 0.67 96 1015.8
20260904232330 61 330 0.0 0.0 0.00 0.92 0.67 96 1015.8
20260904231333 61 329 0.0 3.5 0.00 0.92 0.67 96 1015.7
20260904230329 61 329 0.0 3.5 0.00 0.92 0.67 96 1015.7
20260904225329 61 64 0.0 1.7 0.00 0.92 0.55 96 1015.8
20260904224331 61 64 0.0 1.7 0.00 0.92 0.55 96 1015.8
20260904223329 62 319 0.0 1.7 0.00 0.92 0.67 96 1015.5
20260904222331 62 259 0.0 0.9 0.00 0.92 0.67 95 1015.4
20260904221329 62 259 0.0 0.9 0.00 0.92 0.67 95 1015.4
20260904220330 62 275 0.0 0.9 0.00 0.92 0.55 96 1015.3
20260904215329 62 275 0.0 0.9 0.00 0.92 0.55 96 1015.3
20260904214331 63 275 0.0 0.0 0.00 0.92 0.67 95 1015.1
20260904213329 63 275 0.0 0.0 0.00 0.92 0.67 95 1015.1
20260904212329 63 275 0.0 0.0 0.00 0.92 0.67 96 1015.0
20260904211332 63 275 0.0 0.0 0.00 0.92 0.67 96 1015.0
20260904210331 63 271 0.0 0.9 0.00 0.92 0.53 96 1015.1
20260904205334 63 271 0.0 0.9 0.00 0.92 0.53 96 1015.1
20260904203333 64 270 0.0 0.9 0.00 0.92 0.67 96 1014.9
20260904202331 63 270 0.0 1.7 0.00 0.92 0.67 97 1014.7
20260904201333 63 270 0.0 1.7 0.00 0.92 0.67 97 1014.7
20260904200330 63 215 0.0 0.0 0.00 0.92 0.53 97 1014.5
20260904195340 63 215 0.0 0.0 0.00 0.92 0.53 97 1014.5
20260904194331 63 215 0.0 0.0 0.00 0.92 0.55 97 1014.5
20260904193331 63 215 0.0 0.0 0.00 0.92 0.55 97 1014.5
20260904192332 63 215 0.0 1.7 0.00 0.92 0.67 97 1014.5
20260904165332 61 65 0.0 0.9 0.00 0.92 0.55 97 1014.1
20260904152331 60 245 0.0 1.7 0.00 0.92 0.67 97 1013.4
20260904151332 60 245 0.0 1.7 0.00 0.92 0.67 97 1013.4
20260904150333 60 246 0.0 2.6 0.00 0.92 0.53 97 1013.1
20260904145332 60 246 0.0 2.6 0.00 0.92 0.53 97 1013.1
20260904144332 60 219 0.0 3.5 0.00 0.92 0.67 97 1013.0
20260904143332 60 219 0.0 3.5 0.00 0.92 0.67 97 1013.0
20260904142331 60 221 0.0 5.2 0.00 0.92 0.67 97 1012.8
20260904141332 60 221 0.0 5.2 0.00 0.92 0.67 97 1012.8
20260904140332 60 336 0.0 3.5 0.00 0.92 0.53 97 1012.5
20260904135336 60 336 0.0 3.5 0.00 0.92 0.53 97 1012.5
20260904133332 60 267 0.0 0.9 0.00 0.92 0.55 97 1012.4
20260904132332 60 253 0.0 3.5 0.00 0.92 0.67 97 1012.0
20260904131333 60 253 0.0 3.5 0.00 0.92 0.67 97 1012.0
20260904130334 59 319 0.0 0.0 0.00 0.92 0.53 97 1012.0
20260904115334 58 49 0.0 0.9 0.00 0.92 0.55 97 1011.4
20260904114333 58 49 0.0 0.9 0.00 0.92 0.55 97 1011.4
20260904113332 58 246 0.0 1.7 0.00 0.92 0.67 97 1011.1
20260904112334 58 246 0.0 1.7 0.00 0.92 0.67 97 1011.1
20260904111334 58 36 0.0 1.7 0.00 0.92 0.53 97 1010.9
20260904110336 58 36 0.0 1.7 0.00 0.92 0.53 97 1010.9
20260904105343 58 44 0.0 1.7 0.00 0.92 0.55 97 1011.0
20260904104334 58 44 0.0 1.7 0.00 0.92 0.55 97 1011.0
20260904103334 57 205 0.0 4.3 0.00 0.92 0.67 97 1010.9
20260904102333 57 205 0.0 4.3 0.00 0.92 0.67 97 1010.9
20260904101334 58 274 0.0 2.6 0.00 0.92 0.67 97 1010.9
20260904100338 58 274 0.0 2.6 0.00 0.92 0.67 97 1010.9
20260904095342 57 269 0.0 0.0 0.00 0.92 0.55 97 1010.7
20260904094333 57 269 0.0 3.5 0.00 0.92 0.67 97 1010.8
20260904093337 57 269 0.0 3.5 0.00 0.92 0.67 97 1010.8
20260904092333 57 266 0.0 0.9 0.00 0.92 0.67 97 1011.1
20260904091336 57 266 0.0 0.9 0.00 0.92 0.67 97 1011.1
20260904090333 57 265 0.0 1.7 0.00 0.92 0.53 96 1010.8
20260904085334 57 265 0.0 1.7 0.00 0.92 0.53 96 1010.8
20260904084343 57 219 0.0 0.9 0.49 0.92 0.67 96 1011.0
20260904083336 57 219 0.0 0.9 0.49 0.92 0.67 96 1011.0
20260904082335 58 219 0.9 4.3 0.50 0.92 0.67 96 1011.2
20260904081337 58 219 0.9 4.3 0.50 0.92 0.67 96 1011.2
20260904080337 58 230 0.0 3.5 0.51 0.92 0.53 96 1011.3
20260904074338 58 313 0.0 7.0 0.04 0.43 0.18 97 1011.7
20260904073337 58 313 0.0 7.0 0.04 0.43 0.18 97 1011.7
20260904071336 57 242 0.9 5.2 0.03 0.42 0.17 96 1012.0
20260904070334 57 214 0.0 4.3 0.02 0.41 0.02 96 1011.3
20260904065333 57 214 0.0 4.3 0.02 0.41 0.02 96 1011.3
20260904064333 57 169 0.0 2.6 0.01 0.40 0.03 96 1012.0
20260904063337 58 70 0.0 1.7 0.00 0.39 0.14 96 1011.9
20260904062333 58 70 0.0 1.7 0.00 0.39 0.14 96 1011.9
20260904061334 58 315 0.0 1.7 0.00 0.39 0.00 96 1012.3
20260904060435 58 315 0.0 1.7 0.00 0.39 0.00 96 1012.3
20260904055439 58 74 0.0 1.7 0.02 0.39 0.02 96 1012.0
20260904054436 58 74 0.0 1.7 0.02 0.39 0.02 96 1012.0
20260904053435 58 24 0.0 0.9 0.14 0.39 0.14 96 1012.4
20260904052436 58 24 0.0 0.9 0.14 0.39 0.14 96 1012.4
20260904051435 58 245 0.0 4.3 0.14 0.39 0.39 95 1012.0
20260904050439 58 245 0.0 4.3 0.14 0.39 0.39 95 1012.0
20260904045435 58 294 0.0 3.5 0.12 0.37 0.37 96 1011.5
20260904044437 58 294 0.0 3.5 0.12 0.37 0.37 96 1011.5
20260904043438 58 345 0.0 2.6 0.00 0.25 0.25 95 1012.0
20260904042435 58 345 0.0 2.6 0.00 0.25 0.25 95 1012.0
20260904041435 59 223 0.0 2.6 0.05 0.25 0.25 95 1012.3
20260904040438 59 223 0.0 2.6 0.05 0.25 0.25 95 1012.3
20260904035438 59 186 0.0 4.3 0.07 0.25 0.25 95 1012.8